| time (UTC) | temp F | wind direction | speed MPH | gust MPH | rain 1hr in | rain 24hr in | rain mn in | humidity % | barometer mb |
| 20260506044015 | 54 | 0.0 | 0.0 | 0.00 | 0.10 | 0.00 | 99 | 1010.3 | |
| 20260506043515 | 54 | 0.0 | 1.0 | 0.00 | 0.10 | 0.00 | 99 | 1010.3 | |
| 20260506043015 | 54 | 0.0 | 0.0 | 0.00 | 0.10 | 0.00 | 99 | 1010.3 | |
| 20260506042515 | 54 | 0.0 | 0.0 | 0.00 | 0.10 | 0.00 | 99 | 1010.1 | |
| 20260506042036 | 54 | 0.0 | 1.0 | 0.00 | 0.10 | 0.00 | 99 | 1010.2 | |
| 20260506041535 | 54 | 0.0 | 0.0 | 0.00 | 0.10 | 0.00 | 99 | 1010.2 | |
| 20260506041056 | 54 | 0.0 | 0.0 | 0.00 | 0.10 | 0.00 | 99 | 1010.3 | |
| 20260506040515 | 54 | 0.0 | 0.0 | 0.00 | 0.10 | 0.00 | 99 | 1010.3 | |
| 20260506040015 | 54 | 0.0 | 0.0 | 0.00 | 0.10 | 0.01 | 98 | 1010.2 | |
| 20260506035515 | 54 | 0.0 | 1.0 | 0.00 | 0.10 | 0.01 | 98 | 1010.1 | |
| 20260506035015 | 54 | 0.0 | 1.0 | 0.00 | 0.10 | 0.01 | 98 | 1010.0 | |
| 20260506034515 | 54 | 0.0 | 1.0 | 0.00 | 0.10 | 0.01 | 98 | 1010.0 | |
| 20260506034035 | 54 | 0.0 | 1.0 | 0.00 | 0.10 | 0.01 | 98 | 1010.1 | |
| 20260506033515 | 54 | 0.0 | 1.0 | 0.00 | 0.10 | 0.01 | 99 | 1010.1 | |
| 20260506033015 | 54 | 0.0 | 1.0 | 0.00 | 0.10 | 0.01 | 98 | 1010.0 | |
| 20260506032515 | 54 | 0.0 | 0.0 | 0.00 | 0.10 | 0.01 | 98 | 1010.0 | |
| 20260506032015 | 54 | 0.0 | 0.0 | 0.00 | 0.10 | 0.01 | 98 | 1010.0 | |
| 20260506031515 | 54 | 0.0 | 0.0 | 0.00 | 0.10 | 0.01 | 98 | 1009.9 | |
| 20260506031015 | 54 | 0.0 | 1.0 | 0.00 | 0.10 | 0.01 | 98 | 1009.9 | |
| 20260506030516 | 54 | 0.0 | 1.0 | 0.00 | 0.10 | 0.01 | 98 | 1009.9 | |
| 20260506030015 | 54 | 0.0 | 1.0 | 0.00 | 0.10 | 0.01 | 98 | 1009.9 | |
| 20260506025515 | 54 | 0.0 | 0.0 | 0.00 | 0.10 | 0.01 | 98 | 1009.8 | |
| 20260506025015 | 54 | 0.0 | 1.0 | 0.00 | 0.10 | 0.01 | 98 | 1009.8 | |
| 20260506024515 | 54 | 0.0 | 0.0 | 0.00 | 0.10 | 0.01 | 98 | 1009.8 | |
| 20260506024015 | 54 | 0.0 | 0.0 | 0.00 | 0.10 | 0.01 | 98 | 1009.9 | |
| 20260506023515 | 54 | 0.0 | 1.0 | 0.00 | 0.10 | 0.01 | 98 | 1009.8 | |
| 20260506023015 | 54 | 0.0 | 0.0 | 0.00 | 0.10 | 0.01 | 98 | 1009.7 | |
| 20260506022516 | 54 | 0.0 | 1.0 | 0.00 | 0.10 | 0.01 | 98 | 1009.7 | |
| 20260506022016 | 54 | 0.0 | 1.0 | 0.00 | 0.10 | 0.01 | 98 | 1009.8 | |
| 20260506021515 | 54 | 0.0 | 1.0 | 0.00 | 0.10 | 0.01 | 98 | 1009.8 | |
| 20260506021015 | 54 | 0.0 | 0.0 | 0.00 | 0.10 | 0.01 | 99 | 1009.7 | |
| 20260506020515 | 54 | 113 | 1.0 | 6.0 | 0.00 | 0.10 | 0.01 | 99 | 1009.8 |
| 20260506020015 | 54 | 0.0 | 0.0 | 0.00 | 0.10 | 0.01 | 99 | 1009.8 | |
| 20260506015515 | 54 | 0.0 | 0.0 | 0.00 | 0.10 | 0.01 | 99 | 1009.8 | |
| 20260506015015 | 54 | 0.0 | 0.0 | 0.00 | 0.10 | 0.01 | 99 | 1009.6 | |
| 20260506014515 | 54 | 0.0 | 1.0 | 0.00 | 0.10 | 0.01 | 99 | 1009.7 | |
| 20260506014015 | 53 | 0.0 | 2.0 | 0.00 | 0.10 | 0.01 | 99 | 1009.7 | |
| 20260506013515 | 53 | 0.0 | 0.0 | 0.00 | 0.10 | 0.01 | 98 | 1009.6 | |
| 20260506013015 | 53 | 0.0 | 0.0 | 0.00 | 0.10 | 0.01 | 98 | 1009.6 | |
| 20260506012535 | 53 | 0.0 | 0.0 | 0.00 | 0.10 | 0.01 | 98 | 1009.5 | |
| 20260506012015 | 53 | 0.0 | 1.0 | 0.00 | 0.10 | 0.01 | 98 | 1009.4 | |
| 20260506011536 | 53 | 0.0 | 2.0 | 0.00 | 0.10 | 0.01 | 98 | 1009.2 | |
| 20260506011016 | 54 | 0.0 | 1.0 | 0.00 | 0.10 | 0.01 | 98 | 1009.1 | |
| 20260506010515 | 54 | 90 | 1.0 | 2.0 | 0.00 | 0.10 | 0.01 | 98 | 1009.1 |
| 20260506010015 | 54 | 0.0 | 1.0 | 0.00 | 0.10 | 0.01 | 98 | 1008.9 | |
| 20260506005515 | 55 | 0.0 | 1.0 | 0.01 | 0.10 | 0.01 | 98 | 1008.9 | |
| 20260506005015 | 55 | 0.0 | 0.0 | 0.01 | 0.10 | 0.01 | 98 | 1008.9 | |
| 20260506004515 | 55 | 0.0 | 0.0 | 0.01 | 0.10 | 0.01 | 97 | 1008.9 | |
| 20260506004015 | 55 | 0.0 | 0.0 | 0.01 | 0.10 | 0.01 | 98 | 1008.9 | |
| 20260506003515 | 55 | 0.0 | 1.0 | 0.01 | 0.10 | 0.01 | 97 | 1009.0 | |
| 20260506003015 | 56 | 0.0 | 2.0 | 0.01 | 0.10 | 0.01 | 97 | 1009.0 | |
| 20260506002516 | 56 | 90 | 1.0 | 3.0 | 0.01 | 0.10 | 0.01 | 97 | 1008.9 |
| 20260506002015 | 56 | 0.0 | 0.0 | 0.01 | 0.10 | 0.01 | 97 | 1008.9 | |
| 20260506001515 | 56 | 0.0 | 0.0 | 0.01 | 0.10 | 0.01 | 97 | 1009.0 | |
| 20260506001015 | 56 | 0.0 | 0.0 | 0.01 | 0.10 | 0.01 | 97 | 1008.9 | |
| 20260506000515 | 56 | 0.0 | 1.0 | 0.01 | 0.10 | 0.01 | 96 | 1008.8 | |
| 20260506000015 | 56 | 0.0 | 1.0 | 0.01 | 0.10 | 0.01 | 96 | 1008.9 | |
| 20260505235515 | 57 | 0.0 | 0.0 | 0.00 | 0.09 | 0.00 | 95 | 1009.1 | |
| 20260505235015 | 57 | 0.0 | 1.0 | 0.00 | 0.09 | 0.00 | 95 | 1008.8 | |
| 20260505234515 | 57 | 0.0 | 0.0 | 0.00 | 0.09 | 0.00 | 94 | 1008.9 | |
| 20260505234015 | 58 | 0.0 | 0.0 | 0.00 | 0.09 | 0.00 | 92 | 1009.0 | |
| 20260505233515 | 58 | 0.0 | 1.0 | 0.00 | 0.09 | 0.00 | 90 | 1009.1 | |
| 20260505233015 | 59 | 0.0 | 3.0 | 0.00 | 0.09 | 0.00 | 86 | 1009.2 | |
| 20260505232515 | 59 | 270 | 1.0 | 4.0 | 0.00 | 0.09 | 0.00 | 86 | 1009.1 |
| 20260505232015 | 59 | 0.0 | 2.0 | 0.00 | 0.09 | 0.00 | 87 | 1009.0 | |
| 20260505231515 | 59 | 0.0 | 2.0 | 0.00 | 0.09 | 0.00 | 89 | 1009.2 | |
| 20260505231015 | 59 | 0.0 | 2.0 | 0.00 | 0.09 | 0.00 | 91 | 1009.0 | |
| 20260505230616 | 59 | 0.0 | 0.0 | 0.00 | 0.09 | 0.00 | 93 | 1009.0 | |
| 20260505230015 | 59 | 0.0 | 3.0 | 0.00 | 0.09 | 0.00 | 92 | 1008.9 | |
| 20260505225516 | 59 | 0.0 | 0.0 | 0.00 | 0.09 | 0.00 | 94 | 1008.9 | |
| 20260505215036 | 60 | 315 | 3.0 | 8.0 | 0.00 | 0.09 | 0.09 | 90 | 1008.1 |
| 20260505214516 | 60 | 315 | 2.0 | 5.0 | 0.00 | 0.09 | 0.09 | 91 | 1008.1 |
| 20260505214016 | 60 | 0.0 | 2.0 | 0.00 | 0.09 | 0.09 | 93 | 1008.1 | |
| 20260505213515 | 60 | 0.0 | 1.0 | 0.00 | 0.09 | 0.09 | 93 | 1008.1 | |
| 20260505213016 | 60 | 293 | 1.0 | 2.0 | 0.00 | 0.09 | 0.09 | 92 | 1007.9 |
| 20260505212516 | 61 | 0.0 | 2.0 | 0.01 | 0.09 | 0.09 | 89 | 1007.6 | |
| 20260505212016 | 60 | 0.0 | 1.0 | 0.02 | 0.09 | 0.09 | 87 | 1007.4 | |
| 20260505211516 | 60 | 0.0 | 0.0 | 0.08 | 0.09 | 0.09 | 91 | 1007.4 | |
| 20260505211015 | 59 | 0.0 | 0.0 | 0.09 | 0.09 | 0.09 | 94 | 1007.4 | |
| 20260505210516 | 59 | 0.0 | 1.0 | 0.09 | 0.09 | 0.09 | 95 | 1007.4 | |
| 20260505210015 | 58 | 0.0 | 1.0 | 0.09 | 0.09 | 0.09 | 95 | 1007.6 | |
| 20260505205516 | 58 | 0.0 | 1.0 | 0.09 | 0.09 | 0.09 | 94 | 1007.4 | |
| 20260505205015 | 58 | 113 | 1.0 | 2.0 | 0.09 | 0.09 | 0.09 | 94 | 1007.0 |
| 20260505204516 | 58 | 0.0 | 4.0 | 0.09 | 0.09 | 0.09 | 92 | 1007.0 | |
| 20260505204016 | 58 | 315 | 1.0 | 9.0 | 0.09 | 0.09 | 0.09 | 91 | 1007.3 |
| 20260505203516 | 58 | 315 | 5.0 | 9.0 | 0.09 | 0.09 | 0.09 | 91 | 1008.3 |
| 20260505203036 | 58 | 315 | 5.0 | 12.0 | 0.09 | 0.09 | 0.09 | 89 | 1008.4 |
| 20260505202516 | 59 | 315 | 7.0 | 15.0 | 0.08 | 0.08 | 0.08 | 87 | 1008.2 |
| 20260505202015 | 62 | 315 | 8.0 | 19.0 | 0.07 | 0.07 | 0.07 | 84 | 1008.0 |
| 20260505201516 | 66 | 315 | 7.0 | 15.0 | 0.01 | 0.01 | 0.01 | 75 | 1008.1 |
| 20260505201016 | 71 | 315 | 11.0 | 22.0 | 0.00 | 0.00 | 0.00 | 60 | 1007.0 |
| 20260505200516 | 73 | 225 | 7.0 | 18.0 | 0.00 | 0.00 | 0.00 | 43 | 1006.2 |
| 20260505200036 | 73 | 203 | 8.0 | 21.0 | 0.00 | 0.00 | 0.00 | 42 | 1005.5 |
| 20260505195516 | 73 | 180 | 6.0 | 20.0 | 0.00 | 0.00 | 0.00 | 42 | 1005.7 |
| 20260505195016 | 74 | 158 | 4.0 | 10.0 | 0.00 | 0.00 | 0.00 | 43 | 1005.6 |
| 20260505194516 | 74 | 225 | 6.0 | 20.0 | 0.00 | 0.00 | 0.00 | 41 | 1005.6 |
| 20260505194016 | 74 | 225 | 6.0 | 13.0 | 0.00 | 0.00 | 0.00 | 41 | 1005.6 |
| 20260505193516 | 74 | 248 | 7.0 | 17.0 | 0.00 | 0.00 | 0.00 | 41 | 1005.5 |
| 20260505193036 | 74 | 248 | 7.0 | 22.0 | 0.00 | 0.00 | 0.00 | 40 | 1005.5 |
| 20260505192516 | 74 | 180 | 6.0 | 16.0 | 0.00 | 0.00 | 0.00 | 40 | 1005.5 |
| 20260505192016 | 74 | 203 | 6.0 | 15.0 | 0.00 | 0.00 | 0.00 | 40 | 1005.6 |
| 20260505191516 | 75 | 203 | 6.0 | 12.0 | 0.00 | 0.00 | 0.00 | 40 | 1005.4 |
| 20260505191016 | 75 | 203 | 7.0 | 18.0 | 0.00 | 0.00 | 0.00 | 40 | 1005.5 |
| 20260505190516 | 76 | 225 | 8.0 | 20.0 | 0.00 | 0.00 | 0.00 | 40 | 1005.6 |
| 20260505190036 | 76 | 180 | 6.0 | 16.0 | 0.00 | 0.00 | 0.00 | 40 | 1005.6 |
| 20260505185516 | 76 | 248 | 8.0 | 20.0 | 0.00 | 0.00 | 0.00 | 40 | 1005.6 |
| 20260505185016 | 76 | 203 | 7.0 | 18.0 | 0.00 | 0.00 | 0.00 | 39 | 1005.8 |
| 20260505184536 | 76 | 225 | 7.0 | 17.0 | 0.00 | 0.00 | 0.00 | 42 | 1006.0 |
| 20260505184016 | 75 | 180 | 8.0 | 15.0 | 0.00 | 0.00 | 0.00 | 41 | 1006.0 |
| 20260505183516 | 76 | 225 | 7.0 | 18.0 | 0.00 | 0.00 | 0.00 | 41 | 1006.1 |
| 20260505183016 | 76 | 135 | 7.0 | 17.0 | 0.00 | 0.00 | 0.00 | 41 | 1006.2 |
| 20260505182516 | 75 | 180 | 6.0 | 14.0 | 0.00 | 0.00 | 0.00 | 41 | 1006.0 |
| 20260505182016 | 75 | 270 | 6.0 | 17.0 | 0.00 | 0.00 | 0.00 | 41 | 1006.2 |
| 20260505181515 | 76 | 248 | 6.0 | 16.0 | 0.00 | 0.00 | 0.00 | 40 | 1006.2 |
| 20260505181016 | 76 | 158 | 7.0 | 15.0 | 0.00 | 0.00 | 0.00 | 41 | 1006.2 |
| 20260505180535 | 76 | 180 | 10.0 | 25.0 | 0.00 | 0.00 | 0.00 | 41 | 1006.3 |
| 20260505180016 | 77 | 180 | 8.0 | 20.0 | 0.00 | 0.00 | 0.00 | 39 | 1006.4 |
| 20260505175536 | 76 | 158 | 5.0 | 17.0 | 0.00 | 0.00 | 0.00 | 42 | 1006.4 |
| 20260505175036 | 76 | 135 | 8.0 | 19.0 | 0.00 | 0.00 | 0.00 | 41 | 1006.4 |
| 20260505174516 | 76 | 225 | 6.0 | 13.0 | 0.00 | 0.00 | 0.00 | 40 | 1006.5 |
| 20260505174036 | 76 | 158 | 7.0 | 15.0 | 0.00 | 0.00 | 0.00 | 42 | 1006.5 |
| 20260505173516 | 75 | 225 | 5.0 | 12.0 | 0.00 | 0.00 | 0.00 | 44 | 1006.6 |
| 20260505173016 | 75 | 180 | 6.0 | 15.0 | 0.00 | 0.00 | 0.00 | 42 | 1006.5 |
| 20260505172516 | 75 | 158 | 9.0 | 23.0 | 0.00 | 0.00 | 0.00 | 44 | 1006.8 |
| 20260505172016 | 75 | 158 | 7.0 | 21.0 | 0.00 | 0.00 | 0.00 | 43 | 1006.7 |
| 20260505171536 | 74 | 225 | 7.0 | 16.0 | 0.00 | 0.00 | 0.00 | 43 | 1006.8 |
| 20260505171015 | 74 | 180 | 8.0 | 21.0 | 0.00 | 0.00 | 0.00 | 45 | 1007.0 |
| 20260505170516 | 74 | 315 | 7.0 | 23.0 | 0.00 | 0.00 | 0.00 | 43 | 1007.0 |
| 20260505170016 | 74 | 225 | 7.0 | 20.0 | 0.00 | 0.00 | 0.00 | 45 | 1006.9 |
| 20260505165515 | 74 | 225 | 7.0 | 16.0 | 0.00 | 0.00 | 0.00 | 43 | 1007.2 |
| 20260505165015 | 74 | 158 | 8.0 | 20.0 | 0.00 | 0.00 | 0.00 | 43 | 1007.1 |
| 20260505164516 | 74 | 248 | 9.0 | 25.0 | 0.00 | 0.00 | 0.00 | 44 | 1007.4 |
| 20260505164016 | 75 | 225 | 7.0 | 22.0 | 0.00 | 0.00 | 0.00 | 44 | 1007.2 |
| 20260505163516 | 74 | 225 | 5.0 | 20.0 | 0.00 | 0.00 | 0.00 | 45 | 1007.3 |
| 20260505163016 | 73 | 270 | 6.0 | 11.0 | 0.00 | 0.00 | 0.00 | 46 | 1007.3 |
| 20260505162536 | 73 | 180 | 10.0 | 25.0 | 0.00 | 0.00 | 0.00 | 46 | 1007.6 |
| 20260505162016 | 73 | 180 | 8.0 | 23.0 | 0.00 | 0.00 | 0.00 | 45 | 1007.5 |
| 20260505161516 | 73 | 203 | 8.0 | 18.0 | 0.00 | 0.00 | 0.00 | 46 | 1007.5 |
| 20260505161036 | 73 | 203 | 7.0 | 19.0 | 0.00 | 0.00 | 0.00 | 46 | 1007.6 |
| 20260505160556 | 73 | 180 | 7.0 | 20.0 | 0.00 | 0.00 | 0.00 | 45 | 1007.6 |
| 20260505153016 | 70 | 135 | 7.0 | 17.0 | 0.00 | 0.00 | 0.00 | 50 | 1007.7 |
| 20260505152516 | 70 | 225 | 7.0 | 18.0 | 0.00 | 0.00 | 0.00 | 50 | 1007.8 |
| 20260505152015 | 69 | 248 | 9.0 | 20.0 | 0.00 | 0.00 | 0.00 | 51 | 1008.2 |
| 20260505151536 | 69 | 248 | 6.0 | 16.0 | 0.00 | 0.00 | 0.00 | 53 | 1008.1 |
| 20260505151016 | 69 | 203 | 5.0 | 13.0 | 0.00 | 0.00 | 0.00 | 54 | 1008.3 |
| 20260505150516 | 69 | 225 | 9.0 | 17.0 | 0.00 | 0.00 | 0.00 | 52 | 1008.7 |
| 20260505140516 | 66 | 225 | 3.0 | 9.0 | 0.00 | 0.00 | 0.00 | 57 | 1008.7 |
| 20260505125016 | 65 | 225 | 3.0 | 8.0 | 0.00 | 0.00 | 0.00 | 61 | 1008.6 |
| 20260505124516 | 65 | 225 | 3.0 | 10.0 | 0.00 | 0.00 | 0.00 | 60 | 1008.6 |
| 20260505124016 | 64 | 248 | 3.0 | 12.0 | 0.00 | 0.00 | 0.00 | 61 | 1008.5 |
| 20260505123516 | 64 | 248 | 2.0 | 8.0 | 0.00 | 0.00 | 0.00 | 61 | 1008.5 |
| 20260505123056 | 64 | 225 | 4.0 | 11.0 | 0.00 | 0.00 | 0.00 | 61 | 1008.4 |
| 20260505122516 | 64 | 270 | 3.0 | 9.0 | 0.00 | 0.00 | 0.00 | 61 | 1008.4 |
| 20260505122016 | 64 | 248 | 1.0 | 4.0 | 0.00 | 0.00 | 0.00 | 61 | 1008.4 |
| 20260505121516 | 64 | 293 | 2.0 | 8.0 | 0.00 | 0.00 | 0.00 | 59 | 1008.4 |
| 20260505121016 | 64 | 248 | 1.0 | 5.0 | 0.00 | 0.00 | 0.00 | 59 | 1008.5 |
| 20260505120516 | 64 | 203 | 1.0 | 5.0 | 0.00 | 0.00 | 0.00 | 61 | 1008.4 |
| 20260505120015 | 63 | 248 | 1.0 | 5.0 | 0.00 | 0.00 | 0.00 | 59 | 1008.6 |
| 20260505115536 | 63 | 248 | 1.0 | 5.0 | 0.00 | 0.00 | 0.00 | 60 | 1008.7 |
| 20260505115036 | 62 | 158 | 2.0 | 7.0 | 0.00 | 0.00 | 0.00 | 62 | 1008.7 |
| 20260505114516 | 61 | 248 | 3.0 | 7.0 | 0.00 | 0.00 | 0.00 | 63 | 1008.7 |
| 20260505114016 | 61 | 158 | 1.0 | 5.0 | 0.00 | 0.00 | 0.00 | 64 | 1008.6 |
| 20260505113516 | 60 | 225 | 1.0 | 4.0 | 0.00 | 0.00 | 0.00 | 63 | 1008.6 |
| 20260505113016 | 58 | 135 | 2.0 | 7.0 | 0.00 | 0.00 | 0.00 | 65 | 1008.6 |
| 20260505112516 | 57 | 113 | 2.0 | 4.0 | 0.00 | 0.00 | 0.00 | 67 | 1008.6 |
| 20260505112016 | 57 | 203 | 1.0 | 6.0 | 0.00 | 0.00 | 0.00 | 69 | 1008.8 |
| 20260505111516 | 56 | 225 | 1.0 | 5.0 | 0.00 | 0.00 | 0.00 | 70 | 1008.9 |
| 20260505111016 | 55 | 293 | 1.0 | 4.0 | 0.00 | 0.00 | 0.00 | 74 | 1008.9 |
| 20260505110516 | 55 | 0.0 | 2.0 | 0.00 | 0.00 | 0.00 | 75 | 1008.9 | |
| 20260505102016 | 53 | 90 | 1.0 | 3.0 | 0.00 | 0.00 | 0.00 | 74 | 1008.4 |
| 20260505101536 | 53 | 0.0 | 3.0 | 0.00 | 0.00 | 0.00 | 75 | 1008.2 | |
| 20260505101036 | 52 | 90 | 2.0 | 4.0 | 0.00 | 0.00 | 0.00 | 74 | 1008.2 |
| 20260505100537 | 53 | 90 | 1.0 | 3.0 | 0.00 | 0.00 | 0.00 | 74 | 1008.2 |
| 20260505100016 | 54 | 68 | 1.0 | 3.0 | 0.00 | 0.00 | 0.00 | 71 | 1008.3 |
| 20260505095516 | 53 | 90 | 1.0 | 4.0 | 0.00 | 0.00 | 0.00 | 71 | 1008.3 |
| 20260505095019 | 53 | 90 | 2.0 | 4.0 | 0.00 | 0.00 | 0.00 | 73 | 1008.4 |
| 20260505094516 | 52 | 90 | 2.0 | 5.0 | 0.00 | 0.00 | 0.00 | 72 | 1008.4 |
| 20260505094016 | 52 | 90 | 2.0 | 4.0 | 0.00 | 0.00 | 0.00 | 75 | 1008.3 |
| 20260505093516 | 52 | 90 | 1.0 | 4.0 | 0.00 | 0.00 | 0.00 | 74 | 1008.4 |
| 20260505093016 | 52 | 90 | 1.0 | 3.0 | 0.00 | 0.00 | 0.00 | 74 | 1008.5 |
| 20260505092516 | 53 | 90 | 1.0 | 3.0 | 0.00 | 0.00 | 0.00 | 72 | 1008.4 |
| 20260505092016 | 53 | 90 | 1.0 | 2.0 | 0.00 | 0.00 | 0.00 | 71 | 1008.4 |
| 20260505091516 | 54 | 90 | 1.0 | 3.0 | 0.00 | 0.00 | 0.00 | 70 | 1008.4 |
| 20260505091016 | 54 | 90 | 1.0 | 3.0 | 0.00 | 0.00 | 0.00 | 70 | 1008.4 |
| 20260505090516 | 54 | 0.0 | 2.0 | 0.00 | 0.00 | 0.00 | 69 | 1008.4 | |
| 20260505090016 | 54 | 0.0 | 1.0 | 0.00 | 0.00 | 0.00 | 69 | 1008.4 | |
| 20260505085516 | 54 | 90 | 1.0 | 2.0 | 0.00 | 0.00 | 0.00 | 66 | 1008.4 |
| 20260505085016 | 54 | 90 | 1.0 | 2.0 | 0.00 | 0.00 | 0.00 | 68 | 1008.4 |
| 20260505084516 | 54 | 113 | 1.0 | 3.0 | 0.00 | 0.00 | 0.00 | 67 | 1008.6 |
| 20260505084016 | 53 | 90 | 1.0 | 3.0 | 0.00 | 0.00 | 0.00 | 68 | 1008.5 |
| 20260505083536 | 53 | 90 | 1.0 | 2.0 | 0.00 | 0.00 | 0.00 | 71 | 1008.6 |
| 20260505083016 | 53 | 90 | 1.0 | 2.0 | 0.00 | 0.00 | 0.00 | 70 | 1008.6 |
| 20260505082516 | 53 | 0.0 | 2.0 | 0.00 | 0.00 | 0.00 | 71 | 1008.6 | |
| 20260505082016 | 53 | 113 | 1.0 | 5.0 | 0.00 | 0.00 | 0.00 | 70 | 1008.6 |
| 20260505081516 | 53 | 113 | 1.0 | 4.0 | 0.00 | 0.00 | 0.00 | 71 | 1008.7 |
| 20260505081016 | 53 | 113 | 1.0 | 3.0 | 0.00 | 0.00 | 0.00 | 70 | 1008.7 |
| 20260505080516 | 53 | 135 | 1.0 | 3.0 | 0.00 | 0.00 | 0.00 | 69 | 1008.6 |
| 20260505080016 | 53 | 113 | 1.0 | 6.0 | 0.00 | 0.00 | 0.00 | 69 | 1008.5 |
| 20260505075516 | 53 | 90 | 1.0 | 5.0 | 0.00 | 0.00 | 0.00 | 69 | 1008.5 |
| 20260505075016 | 54 | 135 | 1.0 | 4.0 | 0.00 | 0.00 | 0.00 | 69 | 1008.6 |
| 20260505074536 | 54 | 113 | 1.0 | 3.0 | 0.00 | 0.00 | 0.00 | 66 | 1008.6 |
| 20260505074016 | 54 | 135 | 2.0 | 5.0 | 0.00 | 0.00 | 0.00 | 65 | 1008.5 |
| 20260505073516 | 54 | 113 | 2.0 | 4.0 | 0.00 | 0.00 | 0.00 | 65 | 1008.5 |
| 20260505073016 | 54 | 90 | 1.0 | 6.0 | 0.00 | 0.00 | 0.00 | 68 | 1008.5 |
| 20260505072516 | 55 | 90 | 1.0 | 2.0 | 0.00 | 0.00 | 0.00 | 66 | 1008.6 |
| 20260505072016 | 55 | 113 | 1.0 | 3.0 | 0.00 | 0.00 | 0.00 | 64 | 1008.7 |
| 20260505071516 | 55 | 113 | 1.0 | 3.0 | 0.00 | 0.00 | 0.00 | 64 | 1008.7 |
| 20260505071016 | 55 | 135 | 1.0 | 3.0 | 0.00 | 0.00 | 0.00 | 63 | 1008.7 |
| 20260505070516 | 55 | 113 | 2.0 | 6.0 | 0.00 | 0.00 | 0.00 | 63 | 1008.7 |
| 20260505070016 | 55 | 113 | 3.0 | 7.0 | 0.00 | 0.00 | 0.00 | 63 | 1008.7 |
| 20260505065536 | 55 | 90 | 1.0 | 5.0 | 0.00 | 0.00 | 0.00 | 64 | 1008.8 |
| 20260505065036 | 55 | 158 | 2.0 | 6.0 | 0.00 | 0.00 | 0.00 | 63 | 1008.8 |
| 20260505064516 | 54 | 135 | 1.0 | 4.0 | 0.00 | 0.00 | 0.00 | 64 | 1008.9 |
| 20260505064016 | 54 | 113 | 1.0 | 3.0 | 0.00 | 0.00 | 0.00 | 65 | 1008.9 |
| 20260505063516 | 54 | 113 | 1.0 | 5.0 | 0.00 | 0.00 | 0.00 | 65 | 1008.9 |
| 20260505063016 | 54 | 135 | 1.0 | 4.0 | 0.00 | 0.00 | 0.00 | 65 | 1008.9 |
| 20260505062536 | 54 | 135 | 1.0 | 4.0 | 0.00 | 0.00 | 0.00 | 64 | 1008.8 |
| 20260505062100 | 54 | 0.0 | 2.0 | 0.00 | 0.00 | 0.00 | 63 | 1008.8 | |
| 20260505061520 | 54 | 68 | 1.0 | 4.0 | 0.00 | 0.00 | 0.00 | 64 | 1008.9 |
| 20260505061020 | 54 | 135 | 1.0 | 3.0 | 0.00 | 0.00 | 0.00 | 66 | 1008.8 |
| 20260505060520 | 53 | 113 | 2.0 | 5.0 | 0.00 | 0.00 | 0.00 | 64 | 1008.9 |
| 20260505060020 | 54 | 0.0 | 1.0 | 0.00 | 0.00 | 0.00 | 66 | 1009.0 | |
| 20260505055536 | 55 | 90 | 2.0 | 8.0 | 0.00 | 0.00 | 0.00 | 63 | 1009.0 |
| 20260505055016 | 54 | 68 | 1.0 | 4.0 | 0.00 | 0.00 | 0.00 | 63 | 1009.0 |
| 20260505054516 | 55 | 68 | 1.0 | 3.0 | 0.00 | 0.00 | 0.00 | 62 | 1009.0 |
| 20260505054016 | 55 | 90 | 1.0 | 4.0 | 0.00 | 0.00 | 0.00 | 63 | 1009.0 |
| 20260505053516 | 56 | 135 | 2.0 | 10.0 | 0.00 | 0.00 | 0.00 | 63 | 1008.9 |
| 20260505053036 | 56 | 0.0 | 2.0 | 0.00 | 0.00 | 0.00 | 62 | 1009.0 | |
| 20260505052516 | 56 | 0.0 | 2.0 | 0.00 | 0.00 | 0.00 | 59 | 1009.0 | |
| 20260505052016 | 56 | 135 | 2.0 | 11.0 | 0.00 | 0.00 | 0.00 | 58 | 1009.0 |
| 20260505051516 | 56 | 158 | 4.0 | 11.0 | 0.00 | 0.00 | 0.00 | 59 | 1009.1 |
| 20260505051016 | 55 | 180 | 3.0 | 10.0 | 0.00 | 0.00 | 0.00 | 60 | 1009.1 |
| 20260505050556 | 55 | 68 | 1.0 | 8.0 | 0.00 | 0.00 | 0.00 | 61 | 1009.2 |